[[{"header":{"parameterUnit":"m.s-1","parameterCategory":2,"la1":30.2991,"la2":30.254,"lo1":-89.0895,"lo2":-89.0444,"dy":0.0017,"dx":0.0017,"nx":28,"ny":28,"refTime":"2025-03-12T03:00:00:Z","depth":"0","parameterNumber":2,"parameterNumberName":"U-component_of_CURRENTS"},"data":[0,0,0,0,0,0,0,0,0,0,0,0,0,0,0,0,0,0,0,0,0,0,0,0,0,0,0,0,0,0,0,0,0,0,0,0,0,0,0,0,0,0,0,0,0,0,0,0,0,0,0,0,0,0,0,0,0,0,0.1668,0.1669,0,0.174,0.1741,0.1741,0.1753,0.1753,0.1752,0.1752,0.1758,0.1759,0.176,0,0,0,0,0,0,0,0,0,0,0,0,0,0.1647,0.1647,0.1668,0.1669,0.167,0.174,0.1741,0.1742,0.1753,0.1753,0.1752,0.1751,0.1758,0.1759,0.176,0,0,0,0,0,0,0,0,0,0,0,0,0,0.1681,0.1647,0.1668,0.1684,0.1686,0.1739,0.1741,0.1742,0.1754,0.1753,0.1752,0.1751,0.1758,0.1759,0.176,0.1786,0,0,0.1764,0.1764,0,0,0,0,0,0,0,0,0.1679,0.1682,0.1681,0.1683,0.1686,0.1737,0.1736,0.1753,0.1754,0.1728,0.1752,0.175,0.1746,0.1748,0.1764,0.1786,0.1786,0.1764,0.1764,0.1765,0.1765,0,0,0,0,0,0,0,0.1677,0.1679,0.1696,0.1682,0.1685,0.1724,0.1727,0.174,0.174,0.173,0.1731,0.174,0.1747,0.1763,0.1764,0.1786,0.1764,0.1765,0.1765,0.1766,0.1843,0.1844,0,0,0,0,0,0,0.1663,0.1677,0.1694,0.1699,0.168,0.1725,0.1728,0.1721,0.1741,0.1744,0.174,0.174,0.1762,0.1763,0.1765,0.1804,0.1765,0.1766,0.1767,0.1842,0.1843,0.1845,0,0,0,0,0,0,0.1662,0.1663,0.1691,0.169,0.1697,0.1725,0.1718,0.1723,0.1737,0.175,0.1751,0.1748,0.1761,0.1763,0.1786,0.1803,0.1766,0.1768,0.184,0.1842,0.1844,0.1876,0,0,0,0,0,0,0.1661,0.1662,0.1665,0.1689,0.1696,0.1729,0.1719,0.1725,0.1743,0.1743,0.1757,0.1757,0.1761,0.1784,0.1787,0.1804,0.1768,0.1838,0.1841,0.1843,0.1874,0.1879,0.1884,0,0,0,0,0,0.166,0.1682,0.1664,0.1667,0.1693,0.173,0.1738,0.1756,0.1744,0.1762,0.177,0.1756,0.1802,0.1787,0.1789,0.1807,0.1837,0.184,0.1843,0.1871,0.1878,0.1884,0,0,0,0,0,0,0.1707,0.1686,0.1667,0.1688,0.1702,0.1732,0.1762,0.1757,0.1779,0.1777,0.1775,0.1777,0.1806,0.1805,0.1787,0.1839,0.1817,0.1821,0.1838,0.1844,0.1849,0.1879,0.1769,0,0,0,0,0,0.1706,0.1698,0.1697,0.1718,0.1722,0.1734,0.1753,0.1757,0.1776,0.1785,0.1789,0.1801,0.1824,0.183,0.185,0.1875,0.1984,0.1889,0.1895,0.1899,0.1926,0.2133,0.2162,0.1855,0.1855,0.1855,0,0,0.174,0.1722,0.1725,0.1724,0.1737,0.1766,0.1744,0.1776,0.1798,0.1782,0.1817,0.182,0.1836,0.1871,0.1882,0.1868,0.2046,0.1903,0.1906,0.1932,0.214,0.2171,0.2198,0.1857,0.1857,0.1856,0,0,0.1811,0.1774,0.1796,0.1796,0.1802,0.1802,0.1805,0.1821,0.1825,0.1853,0.1851,0.187,0.1892,0.1915,0.1928,0.1975,0.207,0.197,0.2017,0.2217,0.2246,0.2272,0.2465,0.2508,0.1969,0.1969,0.1969,0,0.1855,0.187,0.1819,0.184,0.186,0.1814,0.1864,0.186,0.188,0.1899,0.1868,0.1941,0.1923,0.1998,0.1997,0.1988,0.213,0.1987,0.223,0.2257,0.2284,0.2476,0.2523,0.1971,0.1971,0.197,0.197,0,0.1943,0.1951,0.1972,0.1962,0.1971,0.2008,0.1982,0.1982,0.1964,0.1971,0.2028,0.2026,0.2083,0.2058,0.2031,0.2187,0.2239,0.2219,0.222,0.2318,0.2512,0.2561,0.1974,0.1973,0.1972,0.1972,0,0,0.2071,0.2039,0.2053,0.2068,0.2039,0.2069,0.2071,0.2095,0.2138,0.212,0.2221,0.2194,0.2201,0.2217,0.22,0.2319,0.2586,0.2342,0.2352,0.2547,0.3073,0.2986,0.3031,0.2638,0.2646,0.2653,0.3141,0,0.2172,0.2237,0.2188,0.2261,0.2296,0.223,0.2247,0.2244,0.2246,0.232,0.2305,0.239,0.2262,0.2318,0.2412,0.2556,0.2716,0.2458,0.2939,0.2953,0.2875,0.3084,0.2989,0.3406,0.3189,0.3197,0.3203,0,0.2287,0.2313,0.2396,0.2404,0.2417,0.2437,0.2474,0.2482,0.2514,0.2537,0.2589,0.2602,0.2727,0.2632,0.2949,0.2809,0.2954,0.3049,0.3071,0.3015,0.2957,0.327,0.3504,0.3398,0.3279,0.3273,0.3268,0,0.2416,0.2464,0.2535,0.254,0.2536,0.2557,0.2551,0.2556,0.2601,0.2706,0.28,0.2912,0.3033,0.3213,0.3306,0.3209,0.3696,0.3602,0.3671,0.3668,0.3691,0.3673,0.3887,0.3904,0.3903,0.3901,0.39,0,0.2528,0.2589,0.2602,0.2637,0.2723,0.2675,0.2767,0.2761,0.2838,0.2912,0.2937,0.3055,0.3197,0.3412,0.3493,0.3739,0.3874,0.3757,0.3815,0.3693,0.3671,0.3653,0.3561,0.392,0.3916,0.3912,0.3909,0,0.2614,0.2632,0.2713,0.2752,0.277,0.2821,0.287,0.2928,0.2997,0.3119,0.3178,0.3305,0.3543,0.3681,0.401,0.4004,0.4135,0.4281,0.4104,0.4126,0.3992,0.3903,0.4064,0.3935,0.4483,0.4484,0.4485,0,0.2644,0.27,0.2794,0.2834,0.2841,0.2914,0.2942,0.3,0.3049,0.3221,0.3286,0.3553,0.365,0.4093,0.42,0.445,0.4247,0.4479,0.4222,0.404,0.399,0.3763,0.3622,0.4308,0.4308,0.4307,0.4307,0,0.2691,0.2734,0.2786,0.2881,0.2936,0.3,0.304,0.3112,0.3155,0.3273,0.3384,0.3499,0.3855,0.4022,0.4324,0.4421,0.4241,0.4469,0.4387,0.3968,0.3648,0.3528,0.3914,0.4303,0.4303,0.4303,0.4303,0.4304,0.2709,0.2749,0.282,0.2905,0.2965,0.2999,0.3014,0.3061,0.3136,0.3206,0.3358,0.349,0.381,0.418,0.4276,0.4347,0.4224,0.4252,0.4208,0.4031,0.3734,0.4069,0.4407,0.4408,0.4409,0.441,0.441,0,0.2706,0.2749,0.2826,0.2897,0.2929,0.2975,0.3008,0.2989,0.3,0.313,0.3214,0.3479,0.3724,0.3963,0.4181,0.4118,0.3925,0.4027,0.3727,0.3632,0.4099,0.3907,0.4021,0.4021,0.4021,0.4021,0.4022,0.4022,0.2705,0.2753,0.2794,0.2835,0.2867,0.2848,0.2837,0.2817,0.2871,0.2931,0.3038,0.3202,0.3534,0.3919,0.3983,0.3912,0.3602,0.3509,0.342,0.3777,0.3792,0.3807,0.3606,0.3655,0.3655,0.2826,0.282,0.2815]},{"header":{"parameterUnit":"m.s-1","parameterCategory":2,"la1":30.2991,"la2":30.254,"lo1":-89.0895,"lo2":-89.0444,"dy":0.0017,"dx":0.0017,"nx":28,"ny":28,"refTime":"2025-03-12T03:00:00:Z","depth":"0","parameterNumber":3,"parameterNumberName":"V-component_of_CURRENTS"},"data":[0,0,0,0,0,0,0,0,0,0,0,0,0,0,0,0,0,0,0,0,0,0,0,0,0,0,0,0,0,0,0,0,0,0,0,0,0,0,0,0,0,0,0,0,0,0,0,0,0,0,0,0,0,0,0,0,0,0,-0.0091,-0.0091,0,-0.0146,-0.0147,-0.0147,-0.0169,-0.0169,-0.0169,-0.0169,-0.0189,-0.0189,-0.019,0,0,0,0,0,0,0,0,0,0,0,0,0,0.0101,0.0097,-0.009,-0.0091,-0.0092,-0.0146,-0.0147,-0.0147,-0.0169,-0.0169,-0.0169,-0.0169,-0.0189,-0.0189,-0.019,0,0,0,0,0,0,0,0,0,0,0,0,0,0.0031,0.0096,-0.009,-0.0111,-0.0114,-0.0146,-0.0147,-0.0147,-0.0169,-0.0169,-0.0169,-0.0169,-0.0189,-0.0189,-0.019,-0.0193,0,0,-0.0192,-0.0193,0,0,0,0,0,0,0,0,0.0034,0.0024,-0.0107,-0.011,-0.0113,-0.0153,-0.0086,-0.0162,-0.0169,-0.0146,-0.0169,-0.0169,-0.0175,-0.0177,-0.0185,-0.0194,-0.0195,-0.0192,-0.0193,-0.0193,-0.0193,0,0,0,0,0,0,0,0.0039,0.0027,-0.011,-0.0108,-0.0112,-0.0082,-0.0093,-0.01,-0.0157,-0.0148,-0.015,-0.016,-0.0176,-0.0184,-0.0185,-0.0195,-0.0192,-0.0193,-0.0193,-0.0194,-0.0213,-0.0213,0,0,0,0,0,0,0.0036,0.003,-0.0109,-0.0112,-0.004,-0.0086,-0.0098,-0.0138,-0.0158,-0.0162,-0.016,-0.016,-0.0183,-0.0184,-0.0186,-0.0191,-0.0193,-0.0194,-0.0194,-0.0213,-0.0213,-0.0213,0,0,0,0,0,0,0.0039,0.0023,-0.0106,-0.0041,-0.0056,-0.009,-0.0134,-0.0139,-0.015,-0.0167,-0.017,-0.0166,-0.0183,-0.0185,-0.0193,-0.0191,-0.0194,-0.0195,-0.0213,-0.0213,-0.0213,-0.02,0,0,0,0,0,0,0.0045,0.0024,-0.0004,-0.0043,-0.006,-0.0125,-0.0135,-0.014,-0.0157,-0.0159,-0.0174,-0.0176,-0.0183,-0.0192,-0.0194,-0.0193,-0.0195,-0.0213,-0.0213,-0.0213,-0.02,-0.02,-0.0199,0,0,0,0,0,0.0051,0.0021,-0.0006,-0.0022,-0.01,-0.0125,-0.013,-0.0151,-0.0157,-0.0161,-0.0172,-0.0176,-0.0194,-0.0193,-0.0195,-0.0194,-0.0213,-0.0213,-0.0213,-0.0201,-0.02,-0.0199,0,0,0,0,0,0,0.0109,0.0015,-0.0016,-0.007,-0.0098,-0.0129,-0.0135,-0.0152,-0.0164,-0.0163,-0.0177,-0.018,-0.0188,-0.0193,-0.0191,-0.02,-0.0204,-0.0204,-0.0194,-0.0193,-0.0192,-0.0149,-0.0196,0,0,0,0,0,0.0101,0.0041,-0.0019,-0.0056,-0.0073,-0.0105,-0.0118,-0.0134,-0.0152,-0.0158,-0.0172,-0.0182,-0.019,-0.0193,-0.0202,-0.0206,-0.0149,-0.0206,-0.0206,-0.0205,-0.0172,-0.0071,-0.0057,-0.0213,-0.0213,-0.0213,0,0,0.0119,0.0057,0.0028,-0.0049,-0.0072,-0.0083,-0.0112,-0.013,-0.0136,-0.0157,-0.0165,-0.0182,-0.0192,-0.0198,-0.0201,-0.0201,-0.0138,-0.0205,-0.0205,-0.0171,-0.007,-0.0054,-0.004,-0.0214,-0.0214,-0.0214,0,0,0.0153,0.0066,0.0045,0.001,-0.0037,-0.0065,-0.0071,-0.0109,-0.0125,-0.014,-0.0156,-0.0164,-0.0184,-0.0185,-0.0189,-0.0188,-0.014,-0.0203,-0.016,-0.0064,-0.0049,-0.0035,0.0037,0.0058,-0.0199,-0.0199,-0.0199,0,0.019,0.0142,0.0046,0.0028,0.0019,-0.0054,-0.0039,-0.0079,-0.0113,-0.0107,-0.0138,-0.0131,-0.017,-0.0139,-0.0162,-0.0183,-0.0119,-0.0165,-0.0059,-0.0044,-0.0029,0.0042,0.0065,-0.0199,-0.0199,-0.0199,-0.0199,0,0.022,0.0183,0.0176,0.0113,0.0081,0.0083,0.0013,-0.0016,-0.0049,-0.0066,-0.0052,-0.0088,-0.0063,-0.0106,-0.0145,-0.0074,-0.006,-0.007,-0.0052,-0.0012,0.0059,0.0083,-0.0198,-0.0198,-0.0198,-0.0198,0,0,0.0343,0.0222,0.0232,0.023,0.0134,0.0135,0.0084,0.0064,0.0097,0.003,0.0113,0.0022,0.0028,0.0025,-0.0011,0.003,0.0131,0.0016,0.0021,0.0104,0.0352,0.0293,0.0312,0.0156,0.0161,0.0164,0.0355,0,0.0429,0.0429,0.033,0.0358,0.0368,0.0259,0.0238,0.0193,0.0168,0.0217,0.0167,0.0228,0.0072,0.0125,0.0125,0.0171,0.0198,0.008,0.0288,0.0295,0.0251,0.0339,0.0257,0.0416,0.0378,0.0382,0.0385,0,0.0531,0.0513,0.0544,0.0504,0.0502,0.0491,0.0488,0.0458,0.0442,0.0447,0.0461,0.0452,0.0489,0.0375,0.0445,0.039,0.0362,0.0361,0.0369,0.0337,0.028,0.0372,0.046,0.0209,0.0421,0.0419,0.0416,0,0.0721,0.0688,0.0724,0.0706,0.0626,0.0627,0.0593,0.0547,0.0586,0.0637,0.0741,0.0731,0.0832,0.0787,0.0705,0.0622,0.0813,0.0713,0.0621,0.0617,0.06,0.0586,0.049,0.0766,0.0765,0.0765,0.0764,0,0.0865,0.0905,0.0821,0.0842,0.0904,0.0794,0.0879,0.0829,0.0879,0.0989,0.0905,0.1049,0.0951,0.1005,0.0863,0.0841,0.0944,0.0672,0.0683,0.0594,0.0578,0.04,0.0264,0.0772,0.077,0.0769,0.0768,0,0.1038,0.099,0.1031,0.0984,0.0983,0.1023,0.1041,0.111,0.1138,0.1306,0.1359,0.1393,0.1438,0.1307,0.1297,0.1105,0.0918,0.0997,0.0878,0.0869,0.0485,0.0354,0.0361,0.0251,0.0948,0.0948,0.0948,0,0.11,0.1139,0.1142,0.1169,0.1142,0.1193,0.1225,0.1236,0.1327,0.1508,0.1627,0.1731,0.1784,0.1734,0.1433,0.1233,0.097,0.1005,0.0787,0.049,0.0354,0.0264,0.0164,0.0772,0.077,0.0769,0.0768,0,0.1198,0.1205,0.1222,0.1289,0.1337,0.1418,0.148,0.1606,0.1654,0.182,0.2013,0.2092,0.2,0.178,0.1484,0.1276,0.0794,0.097,0.0726,0.0269,0.0114,0.0004,0.0596,0.0757,0.0759,0.0759,0.076,0.076,0.1246,0.1285,0.1307,0.1383,0.1456,0.1583,0.1676,0.1789,0.1967,0.2173,0.2254,0.2383,0.2038,0.1609,0.1314,0.0675,0.0711,0.0434,0.0327,0.0284,0.0086,0.0631,0.0747,0.0748,0.0749,0.075,0.075,0,0.1271,0.1318,0.1387,0.1476,0.1582,0.1614,0.1793,0.1903,0.2107,0.231,0.2463,0.2362,0.1862,0.1349,0.0542,0.0114,-0.0072,-0.0129,-0.0303,-0.0357,0.0193,0.0081,-0.0019,-0.0019,-0.0018,-0.0018,-0.0018,-0.0018,0.1283,0.1346,0.1395,0.1554,0.1632,0.1784,0.1895,0.2073,0.2236,0.2463,0.255,0.2612,0.2201,0.0754,-0.0271,-0.0501,-0.0822,-0.0863,-0.0973,-0.068,-0.0638,-0.0598,-0.0738,-0.1008,-0.1009,-0.1521,-0.1526,-0.153]}],[{"header":{"parameterUnit":"m.s-1","parameterCategory":2,"la1":30.2991,"la2":30.254,"lo1":-89.0895,"lo2":-89.0444,"dy":0.0017,"dx":0.0017,"nx":28,"ny":28,"refTime":"2025-03-12T03:00:00:Z","depth":"2","parameterNumber":2,"parameterNumberName":"U-component_of_CURRENTS"},"data":[0,0,0,0,0,0,0,0,0,0,0,0,0,0,0,0,0,0,0,0,0,0,0,0,0,0,0,0,0,0,0,0,0,0,0,0,0,0,0,0,0,0,0,0,0,0,0,0,0,0,0,0,0,0,0,0,0,0,0.0818,0.0819,0,0.0876,0.0877,0.0878,0.0873,0.0873,0.0872,0.0871,0.0906,0.0907,0.0909,0,0,0,0,0,0,0,0,0,0,0,0,0,0.0695,0.0697,0.0818,0.0819,0.082,0.0876,0.0877,0.0878,0.0873,0.0873,0.0872,0.0871,0.0905,0.0907,0.0909,0,0,0,0,0,0,0,0,0,0,0,0,0,0.0749,0.0698,0.0818,0.0825,0.0827,0.0876,0.0877,0.0878,0.0874,0.0873,0.0871,0.087,0.0905,0.0907,0.0909,0.0947,0,0,0.0917,0.0918,0,0,0,0,0,0,0,0,0.0746,0.0754,0.0823,0.0825,0.0827,0.0867,0.0846,0.09,0.0874,0.0855,0.0871,0.087,0.0892,0.0896,0.0908,0.0949,0.095,0.0917,0.0919,0.092,0.092,0,0,0,0,0,0,0,0.0743,0.0751,0.084,0.0824,0.0826,0.0823,0.083,0.0857,0.0878,0.0856,0.0856,0.0865,0.0893,0.0906,0.0909,0.0951,0.0917,0.0919,0.0921,0.0922,0.1114,0.1117,0,0,0,0,0,0,0.074,0.0748,0.0838,0.0842,0.0784,0.0826,0.0833,0.0854,0.0878,0.0881,0.0866,0.0865,0.0902,0.0906,0.091,0.1012,0.092,0.0922,0.0923,0.111,0.1115,0.1119,0,0,0,0,0,0,0.0737,0.0748,0.0836,0.0796,0.0807,0.083,0.0853,0.0856,0.0883,0.0886,0.0888,0.0891,0.0901,0.0906,0.0968,0.1011,0.0923,0.0925,0.1106,0.1112,0.1117,0.1181,0,0,0,0,0,0,0.0734,0.0747,0.0781,0.0797,0.0809,0.0882,0.0855,0.0858,0.089,0.0889,0.0908,0.0909,0.0901,0.0965,0.0971,0.1013,0.0927,0.1101,0.1109,0.1115,0.1174,0.1188,0.12,0,0,0,0,0,0.0729,0.0783,0.0783,0.0794,0.0849,0.0884,0.0891,0.0901,0.0892,0.0918,0.0941,0.0909,0.1012,0.097,0.0976,0.102,0.1098,0.1107,0.1114,0.1169,0.1185,0.1199,0,0,0,0,0,0,0.0745,0.0788,0.0788,0.0851,0.087,0.0884,0.0921,0.0917,0.0956,0.0959,0.0953,0.0958,0.103,0.1029,0.0982,0.1102,0.1052,0.1062,0.1091,0.1107,0.1119,0.1089,0.0929,0,0,0,0,0,0.0764,0.0815,0.0837,0.0885,0.0904,0.0914,0.0936,0.0935,0.0961,0.0977,0.0993,0.1025,0.1069,0.1089,0.1125,0.1187,0.1222,0.1225,0.1237,0.1248,0.1232,0.134,0.136,0.1146,0.1145,0.1145,0,0,0.0773,0.0812,0.0834,0.0892,0.0911,0.0961,0.0925,0.0963,0.1002,0.0976,0.1052,0.107,0.1099,0.1171,0.1203,0.1173,0.1341,0.1258,0.1266,0.1245,0.1351,0.1371,0.1389,0.1151,0.115,0.1149,0,0,0.0819,0.0861,0.0915,0.0947,0.0989,0.1007,0.1023,0.105,0.1065,0.1134,0.113,0.1165,0.1247,0.1255,0.1275,0.1382,0.1408,0.1418,0.1449,0.1555,0.1572,0.1588,0.1707,0.1733,0.1419,0.1419,0.1419,0,0.0835,0.0907,0.0932,0.0994,0.103,0.1034,0.1088,0.1117,0.1159,0.1173,0.1173,0.1277,0.128,0.1352,0.1383,0.1403,0.1488,0.138,0.1568,0.1584,0.1599,0.1717,0.1744,0.1423,0.1423,0.1422,0.1422,0,0.0908,0.0976,0.1014,0.11,0.114,0.119,0.1224,0.1258,0.1281,0.1298,0.1372,0.139,0.1446,0.1459,0.1449,0.1555,0.1595,0.1574,0.1518,0.1624,0.1743,0.177,0.1429,0.1428,0.1427,0.1426,0,0,0.0935,0.1044,0.1065,0.1109,0.1199,0.1233,0.1305,0.1359,0.1404,0.1445,0.1521,0.1553,0.1553,0.1575,0.1575,0.1631,0.1802,0.165,0.1654,0.1748,0.2086,0.1919,0.1933,0.1839,0.1843,0.1846,0.2144,0,0.0991,0.1106,0.1155,0.1264,0.1322,0.1352,0.142,0.1462,0.1508,0.1591,0.1593,0.1683,0.161,0.1659,0.1704,0.1775,0.1872,0.1725,0.1985,0.1993,0.1813,0.1956,0.1802,0.2036,0.217,0.2175,0.2178,0,0.1063,0.113,0.1235,0.1333,0.1363,0.1437,0.1527,0.1588,0.1675,0.1707,0.1768,0.181,0.1887,0.1836,0.1999,0.1929,0.202,0.2063,0.2077,0.1901,0.1873,0.1946,0.208,0.2223,0.2219,0.2216,0.2213,0,0.1061,0.1196,0.1276,0.1315,0.1426,0.1476,0.1547,0.1625,0.1681,0.1813,0.1885,0.1974,0.2062,0.2159,0.2201,0.2163,0.2396,0.2365,0.231,0.2303,0.2201,0.2173,0.2531,0.253,0.253,0.2529,0.2528,0,0.1105,0.1172,0.129,0.1333,0.1423,0.1508,0.1613,0.1666,0.1799,0.1875,0.1966,0.2047,0.2154,0.2271,0.231,0.2372,0.2503,0.2338,0.2366,0.2223,0.2195,0.2353,0.2328,0.254,0.2537,0.2535,0.2533,0,0.1073,0.1159,0.1242,0.1372,0.1422,0.1485,0.1644,0.1707,0.1844,0.1965,0.203,0.2178,0.2305,0.2386,0.2559,0.2505,0.2583,0.2587,0.2398,0.2391,0.2415,0.2391,0.26,0.2597,0.2594,0.2591,0.2589,0,0.1055,0.1104,0.1239,0.128,0.1346,0.1466,0.1533,0.1697,0.1765,0.2001,0.2047,0.2254,0.2314,0.2488,0.2471,0.2554,0.2592,0.2435,0.2273,0.2415,0.2423,0.2403,0.2384,0.2232,0.2228,0.2224,0.2221,0,0.0999,0.1055,0.1108,0.1205,0.1294,0.1381,0.1509,0.1577,0.1762,0.1884,0.2046,0.2154,0.2307,0.2288,0.235,0.2349,0.2384,0.2349,0.2636,0.2163,0.2071,0.2076,0.207,0.2185,0.2189,0.2192,0.2193,0.2195,0.0934,0.0951,0.1038,0.1119,0.1209,0.1291,0.1343,0.147,0.1596,0.1766,0.1922,0.2029,0.2087,0.2071,0.2057,0.2057,0.2186,0.2115,0.2129,0.2146,0.1975,0.1873,0.1925,0.1927,0.1928,0.193,0.1931,0,0.0853,0.0903,0.0952,0.1051,0.1104,0.1204,0.131,0.1343,0.1447,0.1605,0.1746,0.1652,0.1697,0.1783,0.1738,0.1726,0.1725,0.1665,0.1682,0.1718,0.175,0.1558,0.1399,0.1397,0.1395,0.1393,0,0,0.0821,0.0834,0.087,0.0935,0.1016,0.1083,0.1132,0.118,0.1266,0.131,0.1386,0.1583,0.1692,0.1494,0.1495,0.1457,0.1563,0.1398,0.183,0.1884,0.1913,0.202,0.1764,0,0,0,0,0]},{"header":{"parameterUnit":"m.s-1","parameterCategory":2,"la1":30.2991,"la2":30.254,"lo1":-89.0895,"lo2":-89.0444,"dy":0.0017,"dx":0.0017,"nx":28,"ny":28,"refTime":"2025-03-12T03:00:00:Z","depth":"2","parameterNumber":3,"parameterNumberName":"V-component_of_CURRENTS"},"data":[0,0,0,0,0,0,0,0,0,0,0,0,0,0,0,0,0,0,0,0,0,0,0,0,0,0,0,0,0,0,0,0,0,0,0,0,0,0,0,0,0,0,0,0,0,0,0,0,0,0,0,0,0,0,0,0,0,0,-0.0564,-0.0564,0,-0.0582,-0.0582,-0.0583,-0.0623,-0.0623,-0.0624,-0.0624,-0.0612,-0.0611,-0.061,0,0,0,0,0,0,0,0,0,0,0,0,0,-0.0561,-0.0561,-0.0564,-0.0564,-0.0564,-0.0581,-0.0582,-0.0583,-0.0623,-0.0623,-0.0624,-0.0625,-0.0612,-0.0611,-0.061,0,0,0,0,0,0,0,0,0,0,0,0,0,-0.0572,-0.0561,-0.0564,-0.0583,-0.0585,-0.0581,-0.0582,-0.0583,-0.0623,-0.0623,-0.0624,-0.0625,-0.0612,-0.0611,-0.061,-0.0587,0,0,-0.0606,-0.0606,0,0,0,0,0,0,0,0,-0.0571,-0.0573,-0.058,-0.0582,-0.0584,-0.0598,-0.0576,-0.0581,-0.0622,-0.0612,-0.0624,-0.0625,-0.0601,-0.0601,-0.0608,-0.0586,-0.0586,-0.0606,-0.0605,-0.0605,-0.0604,0,0,0,0,0,0,0,-0.0571,-0.0572,-0.0574,-0.058,-0.0582,-0.059,-0.0593,-0.0578,-0.0604,-0.0613,-0.0615,-0.0611,-0.0603,-0.0609,-0.0608,-0.0585,-0.0606,-0.0605,-0.0604,-0.0604,-0.0541,-0.0541,0,0,0,0,0,0,-0.0561,-0.0571,-0.0574,-0.0574,-0.0576,-0.0589,-0.0592,-0.0595,-0.0605,-0.0606,-0.0611,-0.0613,-0.0611,-0.0609,-0.0607,-0.0582,-0.0605,-0.0604,-0.0603,-0.0542,-0.0541,-0.054,0,0,0,0,0,0,-0.0561,-0.0561,-0.0573,-0.057,-0.0572,-0.0588,-0.0591,-0.0595,-0.0598,-0.0603,-0.0605,-0.0609,-0.0611,-0.0609,-0.0595,-0.0582,-0.0603,-0.0602,-0.0543,-0.0542,-0.0541,-0.053,0,0,0,0,0,0,-0.0561,-0.0561,-0.0551,-0.057,-0.0571,-0.0564,-0.059,-0.0595,-0.0593,-0.0597,-0.0601,-0.0602,-0.0612,-0.0597,-0.0594,-0.0581,-0.0601,-0.0545,-0.0543,-0.0541,-0.0532,-0.0529,-0.0526,0,0,0,0,0,-0.0561,-0.0538,-0.0551,-0.055,-0.0561,-0.0562,-0.0564,-0.0581,-0.0592,-0.0588,-0.0596,-0.0602,-0.0584,-0.0595,-0.0592,-0.0578,-0.0545,-0.0543,-0.0541,-0.0533,-0.0529,-0.0526,0,0,0,0,0,0,-0.0529,-0.054,-0.0555,-0.0537,-0.0548,-0.0568,-0.0558,-0.0572,-0.0576,-0.0577,-0.059,-0.059,-0.0573,-0.0571,-0.0584,-0.0553,-0.0564,-0.0561,-0.0559,-0.0555,-0.0552,-0.0583,-0.06,0,0,0,0,0,-0.0517,-0.0506,-0.0525,-0.0511,-0.0515,-0.0537,-0.0536,-0.055,-0.0558,-0.0562,-0.0565,-0.0564,-0.0561,-0.0556,-0.055,-0.0529,-0.0542,-0.0517,-0.0514,-0.0512,-0.0533,-0.0545,-0.0546,-0.0533,-0.0533,-0.0533,0,0,-0.0505,-0.0504,-0.0502,-0.0503,-0.0515,-0.0512,-0.0539,-0.0535,-0.0535,-0.0556,-0.0546,-0.055,-0.0552,-0.0539,-0.053,-0.0537,-0.0514,-0.0509,-0.0507,-0.0531,-0.0543,-0.0545,-0.0546,-0.0532,-0.0532,-0.0533,0,0,-0.0475,-0.0474,-0.0462,-0.0462,-0.0467,-0.0481,-0.0477,-0.0494,-0.0505,-0.0492,-0.0515,-0.0522,-0.0494,-0.0517,-0.0519,-0.0493,-0.0498,-0.0472,-0.0485,-0.0495,-0.0497,-0.0499,-0.0491,-0.0492,-0.0472,-0.0472,-0.0472,0,-0.0455,-0.0448,-0.0458,-0.0442,-0.0442,-0.0465,-0.046,-0.0465,-0.0474,-0.0493,-0.0481,-0.0495,-0.0492,-0.0513,-0.0507,-0.049,-0.0488,-0.05,-0.0494,-0.0497,-0.0499,-0.049,-0.0492,-0.0471,-0.0472,-0.0472,-0.0472,0,-0.0428,-0.0415,-0.0403,-0.0399,-0.0399,-0.0391,-0.0408,-0.0415,-0.0425,-0.0442,-0.0459,-0.0467,-0.0485,-0.0475,-0.0482,-0.05,-0.0488,-0.049,-0.051,-0.05,-0.049,-0.0493,-0.047,-0.0471,-0.0471,-0.0471,0,0,-0.04,-0.0389,-0.0383,-0.0386,-0.0378,-0.0382,-0.0382,-0.0409,-0.0423,-0.0429,-0.0443,-0.0463,-0.0485,-0.0491,-0.0503,-0.052,-0.0521,-0.0511,-0.0512,-0.0514,-0.0526,-0.0594,-0.0603,-0.0518,-0.0518,-0.0519,-0.0504,0,-0.038,-0.0355,-0.0355,-0.034,-0.0338,-0.0357,-0.0362,-0.0386,-0.0398,-0.0405,-0.0443,-0.044,-0.0481,-0.0476,-0.0509,-0.0513,-0.053,-0.0524,-0.0526,-0.0527,-0.0599,-0.061,-0.0534,-0.0522,-0.0506,-0.0506,-0.0507,0,-0.0356,-0.0345,-0.0333,-0.0338,-0.0342,-0.0333,-0.0367,-0.0369,-0.0394,-0.0401,-0.0432,-0.0436,-0.0471,-0.0477,-0.0535,-0.0526,-0.0533,-0.0542,-0.0541,-0.0621,-0.0601,-0.0533,-0.0527,-0.0511,-0.051,-0.051,-0.051,0,-0.035,-0.033,-0.0328,-0.0321,-0.0328,-0.0337,-0.0344,-0.0374,-0.0374,-0.0382,-0.036,-0.0426,-0.0402,-0.0465,-0.0514,-0.0503,-0.0562,-0.0539,-0.0615,-0.0618,-0.0567,-0.0566,-0.0578,-0.0578,-0.0578,-0.0578,-0.0578,0,-0.0328,-0.0318,-0.0323,-0.0314,-0.0322,-0.0328,-0.0332,-0.0352,-0.0344,-0.0324,-0.035,-0.0337,-0.0392,-0.0432,-0.05,-0.059,-0.0557,-0.0637,-0.0634,-0.0558,-0.0557,-0.0564,-0.0563,-0.0577,-0.0578,-0.0578,-0.0578,0,-0.0309,-0.0312,-0.0307,-0.0314,-0.0314,-0.0317,-0.0299,-0.0296,-0.0291,-0.0248,-0.0231,-0.0242,-0.0296,-0.0389,-0.0458,-0.0546,-0.0636,-0.067,-0.0582,-0.0573,-0.0673,-0.0671,-0.0728,-0.0731,-0.0733,-0.0735,-0.0736,0,-0.0291,-0.0288,-0.0299,-0.0293,-0.0287,-0.0281,-0.0273,-0.0273,-0.0244,-0.0203,-0.0169,-0.0184,-0.0191,-0.0357,-0.0492,-0.0629,-0.0671,-0.0685,-0.0678,-0.0705,-0.0695,-0.0689,-0.0684,-0.0571,-0.0571,-0.0571,-0.0571,0,-0.0252,-0.0265,-0.0264,-0.0258,-0.0247,-0.023,-0.0199,-0.0164,-0.014,-0.0074,-0.0006,0.0004,-0.0133,-0.024,-0.0468,-0.0572,-0.067,-0.0695,-0.0731,-0.0578,-0.0565,-0.0554,-0.0551,-0.0572,-0.0572,-0.0572,-0.0572,-0.0572,-0.0219,-0.0217,-0.0219,-0.0211,-0.0196,-0.0152,-0.0091,-0.0029,0.0058,0.0228,0.0164,0.0242,0.0019,-0.0191,-0.0419,-0.0641,-0.065,-0.071,-0.0705,-0.0701,-0.0719,-0.0716,-0.075,-0.0751,-0.0752,-0.0753,-0.0753,0,-0.0172,-0.017,-0.0161,-0.0139,-0.0093,-0.0103,-0.0018,0.0098,0.0264,0.039,0.0512,0.0368,0.0202,-0.0071,-0.0366,-0.0598,-0.0567,-0.0687,-0.0578,-0.0577,-0.0577,-0.0584,-0.0582,-0.0582,-0.0582,-0.0582,0,0,-0.0147,-0.0124,-0.0124,-0.0037,-0.0006,0.0109,0.0183,0.0367,0.0498,0.0669,0.0739,0.0764,0.0335,0.0156,-0.0172,-0.0357,-0.0402,-0.0393,-0.0507,-0.0338,-0.0333,-0.0574,-0.0586,0,0,0,0,0]}],[{"header":{"parameterUnit":"m.s-1","parameterCategory":2,"la1":30.2991,"la2":30.254,"lo1":-89.0895,"lo2":-89.0444,"dy":0.0017,"dx":0.0017,"nx":28,"ny":28,"refTime":"2025-03-12T03:00:00:Z","depth":"4","parameterNumber":2,"parameterNumberName":"U-component_of_CURRENTS"},"data":[0,0,0,0,0,0,0,0,0,0,0,0,0,0,0,0,0,0,0,0,0,0,0,0,0,0,0,0,0,0,0,0,0,0,0,0,0,0,0,0,0,0,0,0,0,0,0,0,0,0,0,0,0,0,0,0,0,0,0.0457,0.0457,0,0.0499,0.0499,0.05,0.0552,0.0553,0.0554,0.0555,0.062,0.0621,0.0622,0,0,0,0,0,0,0,0,0,0,0,0,0,0.0389,0.039,0.0456,0.0457,0.0458,0.0499,0.0499,0.05,0.0552,0.0553,0.0555,0.0556,0.062,0.0621,0.0622,0,0,0,0,0,0,0,0,0,0,0,0,0,0.0422,0.039,0.0456,0.049,0.0494,0.0499,0.0499,0.05,0.0552,0.0553,0.0555,0.0556,0.062,0.0621,0.0622,0.06,0,0,0.0626,0.0626,0,0,0,0,0,0,0,0,0.042,0.0424,0.0485,0.0488,0.0492,0.0523,0.0499,0.0535,0.0552,0.0528,0.0555,0.0557,0.059,0.0594,0.0596,0.0603,0.0606,0.0626,0.0626,0.0627,0.0627,0,0,0,0,0,0,0,0.0417,0.0422,0.0472,0.0485,0.049,0.0492,0.0499,0.0506,0.0549,0.053,0.0535,0.0542,0.0592,0.0594,0.0598,0.0607,0.0626,0.0627,0.0628,0.0628,0.0688,0.0688,0,0,0,0,0,0,0.0416,0.042,0.047,0.0473,0.0461,0.0493,0.05,0.051,0.0549,0.0556,0.054,0.0544,0.0591,0.0596,0.06,0.066,0.0627,0.0628,0.0629,0.0687,0.0688,0.0689,0,0,0,0,0,0,0.0414,0.042,0.0469,0.0449,0.0455,0.0493,0.0504,0.0511,0.0553,0.0557,0.0565,0.0581,0.0593,0.0598,0.0642,0.066,0.0629,0.063,0.0686,0.0687,0.0688,0.0727,0,0,0,0,0,0,0.0412,0.0419,0.0435,0.0449,0.0457,0.0497,0.0503,0.051,0.0553,0.0559,0.0593,0.0598,0.0594,0.0641,0.0644,0.0661,0.0631,0.0685,0.0686,0.0688,0.0724,0.0729,0.0733,0,0,0,0,0,0.0409,0.0419,0.0435,0.0442,0.0474,0.0499,0.0504,0.0533,0.0554,0.0576,0.0603,0.0599,0.0653,0.0643,0.0646,0.0664,0.0684,0.0686,0.0688,0.0722,0.0728,0.0733,0,0,0,0,0,0,0.0393,0.0425,0.0444,0.0462,0.0493,0.0509,0.0529,0.0553,0.059,0.0605,0.0614,0.0621,0.0659,0.066,0.0649,0.0686,0.0666,0.0668,0.0691,0.0696,0.0701,0.0724,0.0632,0,0,0,0,0,0.0396,0.0418,0.0448,0.0467,0.0485,0.0516,0.0534,0.0558,0.0586,0.0606,0.0628,0.0648,0.0661,0.0682,0.0687,0.0715,0.0729,0.0728,0.0732,0.0736,0.0757,0.0796,0.0806,0.0695,0.0695,0.0695,0,0,0.0391,0.0415,0.0426,0.0466,0.049,0.0511,0.0531,0.0569,0.0592,0.0605,0.0649,0.0664,0.0671,0.0697,0.0714,0.0709,0.0773,0.0738,0.0742,0.0761,0.0799,0.081,0.0819,0.0696,0.0696,0.0696,0,0,0.0388,0.042,0.0439,0.0468,0.0517,0.0529,0.0551,0.059,0.062,0.0662,0.067,0.0709,0.0732,0.0741,0.0746,0.0782,0.0789,0.0782,0.0833,0.087,0.088,0.0888,0.0911,0.0922,0.0792,0.0792,0.0792,0,0.0383,0.0412,0.0448,0.0477,0.0499,0.0542,0.0565,0.0592,0.0642,0.0677,0.0686,0.0752,0.075,0.0793,0.0802,0.0793,0.0817,0.081,0.0877,0.0886,0.0894,0.0916,0.0927,0.0794,0.0794,0.0793,0.0793,0,0.0394,0.0425,0.044,0.0487,0.0515,0.0544,0.0584,0.0626,0.0668,0.0703,0.0777,0.0793,0.0842,0.0837,0.0832,0.0891,0.0889,0.0872,0.0865,0.0908,0.0927,0.0938,0.0797,0.0796,0.0795,0.0795,0,0,0.0353,0.0431,0.0435,0.0463,0.0526,0.0542,0.0593,0.065,0.0707,0.0763,0.084,0.0865,0.091,0.092,0.0926,0.0962,0.1023,0.0954,0.0955,0.098,0.1112,0.1025,0.1028,0.1028,0.1031,0.1032,0.1098,0,0.0351,0.039,0.0436,0.0472,0.0495,0.0558,0.0602,0.0666,0.0735,0.0818,0.0874,0.0939,0.0929,0.0969,0.1007,0.1018,0.1057,0.1007,0.1064,0.1066,0.0986,0.104,0.104,0.1106,0.1108,0.111,0.1112,0,0.0345,0.0371,0.0402,0.0477,0.0496,0.0526,0.0619,0.0673,0.0798,0.0866,0.0966,0.1017,0.1089,0.1071,0.1146,0.1122,0.113,0.1136,0.1138,0.1057,0.1,0.1056,0.1131,0.113,0.1128,0.1127,0.1126,0,0.0286,0.0348,0.0367,0.039,0.0476,0.0515,0.0571,0.0691,0.0761,0.091,0.0989,0.1089,0.1152,0.1189,0.1198,0.1191,0.1268,0.1249,0.1183,0.1176,0.1217,0.1207,0.1311,0.131,0.131,0.131,0.131,0,0.0264,0.0285,0.0342,0.0355,0.0391,0.0482,0.0562,0.0648,0.0798,0.0893,0.1015,0.1088,0.1191,0.1241,0.1238,0.1239,0.1298,0.1212,0.1197,0.1228,0.1219,0.1224,0.1213,0.1313,0.1312,0.1312,0.1311,0,0.0219,0.0256,0.0275,0.0344,0.0366,0.0398,0.0533,0.0604,0.0763,0.0895,0.0947,0.1109,0.1184,0.1249,0.1308,0.1281,0.1283,0.1262,0.1293,0.1274,0.1163,0.1154,0.1227,0.1224,0.1222,0.1221,0.1219,0,0.0214,0.0212,0.0239,0.024,0.0276,0.0341,0.0394,0.0558,0.0646,0.0877,0.0925,0.1071,0.1159,0.1183,0.1241,0.1264,0.1242,0.1248,0.1219,0.1182,0.116,0.1153,0.1146,0.1216,0.1216,0.1215,0.1215,0,0.0186,0.0181,0.0187,0.0183,0.021,0.0253,0.0352,0.041,0.0619,0.0757,0.0899,0.0986,0.108,0.1135,0.1171,0.1167,0.1251,0.1228,0.1232,0.1205,0.117,0.1149,0.1144,0.1208,0.1209,0.121,0.121,0,0.0155,0.0136,0.0127,0.0128,0.0145,0.0177,0.0236,0.0355,0.0465,0.0741,0.0757,0.0921,0.1049,0.1082,0.1086,0.1112,0.1111,0.1084,0.1096,0.1105,0.1035,0.0971,0.0954,0,0,0,0,0,0.0128,0.0099,0.0083,0.0079,0.0097,0.0122,0.0216,0.0296,0.0483,0.0561,0.0683,0.0766,0.0877,0.093,0.0936,0.102,0.109,0.1022,0.1057,0.117,0.1178,0.1108,0,0,0,0,0,0,0.0102,0.0078,0.0063,0.0045,0.0046,0.008,0.0136,0.0257,0.0318,0.0506,0.0551,0.0711,0.0794,0.0864,0.0918,0.0939,0.0945,0.1117,0.1116,0.1166,0.1173,0.1179,0.111,0,0,0,0,0]},{"header":{"parameterUnit":"m.s-1","parameterCategory":2,"la1":30.2991,"la2":30.254,"lo1":-89.0895,"lo2":-89.0444,"dy":0.0017,"dx":0.0017,"nx":28,"ny":28,"refTime":"2025-03-12T03:00:00:Z","depth":"4","parameterNumber":3,"parameterNumberName":"V-component_of_CURRENTS"},"data":[0,0,0,0,0,0,0,0,0,0,0,0,0,0,0,0,0,0,0,0,0,0,0,0,0,0,0,0,0,0,0,0,0,0,0,0,0,0,0,0,0,0,0,0,0,0,0,0,0,0,0,0,0,0,0,0,0,0,0.0078,0.0078,0,0.0062,0.0062,0.0061,0.0008,0.0007,0.0006,0.0005,-0.0113,-0.0115,-0.0117,0,0,0,0,0,0,0,0,0,0,0,0,0,0.0021,0.0022,0.0078,0.0078,0.0078,0.0062,0.0062,0.0061,0.0008,0.0007,0.0005,0.0004,-0.0112,-0.0115,-0.0117,0,0,0,0,0,0,0,0,0,0,0,0,0,0.0028,0.0023,0.0078,0.0051,0.0048,0.0062,0.0062,0.0061,0.0008,0.0007,0.0005,0.0004,-0.0111,-0.0115,-0.0118,-0.0106,0,0,-0.0128,-0.0129,0,0,0,0,0,0,0,0,0.0028,0.003,0.0055,0.0053,0.005,0.0037,-0.0002,0.0001,0.0009,0.0022,0.0005,0.0003,-0.007,-0.0077,-0.0077,-0.0112,-0.0117,-0.0128,-0.013,-0.0131,-0.0132,0,0,0,0,0,0,0,0.0027,0.003,0.007,0.0055,0.0052,0.0025,0.0024,-0.0001,-0.0018,0.002,0.0017,0.0018,-0.0073,-0.0074,-0.0081,-0.0118,-0.0128,-0.0131,-0.0133,-0.0134,-0.0227,-0.0227,0,0,0,0,0,0,0.0037,0.003,0.0071,0.007,0.0036,0.0027,0.0027,0.0041,-0.0016,-0.0025,0.002,0.0016,-0.0068,-0.0077,-0.0085,-0.0125,-0.0131,-0.0134,-0.0136,-0.0226,-0.0227,-0.0227,0,0,0,0,0,0,0.0036,0.0041,0.0071,0.005,0.0052,0.0031,0.0047,0.0042,0.0015,-0.0015,-0.0027,-0.0005,-0.0069,-0.0081,-0.0128,-0.0129,-0.0136,-0.0139,-0.0226,-0.0226,-0.0227,-0.0174,0,0,0,0,0,0,0.0035,0.0041,0.0044,0.0051,0.0053,0.007,0.0048,0.0043,0.0021,0.0015,-0.0039,-0.005,-0.0071,-0.0123,-0.0131,-0.0133,-0.0141,-0.0225,-0.0226,-0.0227,-0.0175,-0.0173,-0.0171,0,0,0,0,0,0.0033,0.005,0.0045,0.0049,0.0063,0.0071,0.0069,0.0047,0.0021,0.0014,-0.0029,-0.005,-0.0136,-0.0126,-0.0136,-0.0138,-0.0224,-0.0226,-0.0227,-0.0176,-0.0173,-0.0171,0,0,0,0,0,0,0.0023,0.0046,0.0041,0.0062,0.0061,0.0062,0.0053,0.0037,0.0001,-0.0018,-0.0055,-0.0068,-0.0107,-0.0135,-0.0124,-0.0171,-0.0184,-0.0187,-0.0142,-0.014,-0.0138,-0.0124,-0.0144,0,0,0,0,0,0.0026,0.0041,0.0055,0.0065,0.0066,0.0054,0.0049,0.0036,0.0013,-0.0006,-0.0042,-0.0086,-0.0113,-0.0139,-0.0167,-0.0194,-0.0225,-0.0205,-0.0202,-0.02,-0.0198,-0.0244,-0.0246,-0.0231,-0.0231,-0.0231,0,0,0.0023,0.0037,0.0044,0.0063,0.0057,0.0068,0.0045,0.0037,0.004,-0.0013,-0.0041,-0.008,-0.0119,-0.0144,-0.0165,-0.0173,-0.0222,-0.0202,-0.0199,-0.0198,-0.0246,-0.0247,-0.0248,-0.0232,-0.0232,-0.0232,0,0,0.0028,0.0039,0.005,0.0057,0.0055,0.0059,0.0053,0.0043,0.0029,0.0003,-0.003,-0.0067,-0.0124,-0.0135,-0.0151,-0.0157,-0.0207,-0.0183,-0.0163,-0.0208,-0.0209,-0.0211,-0.0251,-0.0256,-0.0184,-0.0184,-0.0184,0,0.0014,0.0044,0.0051,0.0064,0.0075,0.0055,0.0069,0.0064,0.0036,0.0031,-0.0008,-0.0079,-0.0109,-0.0123,-0.0128,-0.0148,-0.0195,-0.0164,-0.0203,-0.0206,-0.0208,-0.0249,-0.0255,-0.0182,-0.0182,-0.0182,-0.0182,0,0.0031,0.0051,0.0057,0.0077,0.009,0.0095,0.0104,0.0098,0.0069,0.0058,0.0019,-0.0032,-0.0079,-0.0089,-0.0113,-0.0141,-0.0175,-0.0191,-0.0203,-0.0206,-0.0249,-0.0257,-0.0178,-0.0179,-0.018,-0.018,0,0,0.0003,0.0059,0.0056,0.0078,0.0098,0.0112,0.013,0.0146,0.0141,0.0097,0.0076,0.0038,-0.0016,-0.0039,-0.008,-0.0114,-0.0162,-0.0167,-0.0171,-0.0195,-0.0278,-0.0234,-0.0239,-0.0202,-0.0203,-0.0204,-0.0301,0,0.0003,0.0043,0.0074,0.011,0.0133,0.0151,0.0175,0.0185,0.0161,0.0132,0.0088,0.0034,0.0011,-0.0043,-0.0073,-0.0152,-0.0183,-0.0135,-0.0283,-0.0287,-0.0237,-0.0246,-0.0207,-0.0307,-0.0309,-0.031,-0.0311,0,0.0,0.0036,0.0073,0.0143,0.0154,0.0169,0.02,0.0212,0.0194,0.0165,0.0112,0.0052,-0.0008,-0.0045,-0.0153,-0.0136,-0.0202,-0.0251,-0.0257,-0.0238,-0.0257,-0.0307,-0.0326,-0.0324,-0.0323,-0.0322,-0.0321,0,-0.0026,0.0035,0.0068,0.0088,0.0157,0.0175,0.0196,0.0207,0.0219,0.0151,0.0122,0.0045,-0.0029,-0.0113,-0.0194,-0.0209,-0.031,-0.0343,-0.0352,-0.035,-0.0384,-0.0382,-0.041,-0.0409,-0.0409,-0.0409,-0.0409,0,-0.0031,-0.0,0.0053,0.0071,0.0124,0.0154,0.018,0.0194,0.0178,0.0194,0.0109,0.0085,-0.0058,-0.0121,-0.02,-0.0285,-0.0316,-0.0347,-0.037,-0.036,-0.0354,-0.039,-0.0386,-0.0413,-0.0412,-0.0411,-0.041,0,-0.0047,-0.0022,0.0033,0.0094,0.0114,0.0141,0.0193,0.0221,0.0179,0.0184,0.0154,0.0079,-0.0016,-0.0109,-0.0248,-0.029,-0.0374,-0.0386,-0.0352,-0.0372,-0.0395,-0.0388,-0.0454,-0.0453,-0.0452,-0.0452,-0.0451,0,-0.0038,-0.0022,0.0045,0.009,0.012,0.0159,0.0214,0.0216,0.0247,0.021,0.0226,0.0114,0.0066,-0.0089,-0.02,-0.0345,-0.0349,-0.0401,-0.0414,-0.0382,-0.0399,-0.0393,-0.0387,-0.045,-0.045,-0.045,-0.045,0,-0.0009,-0.0007,0.004,0.0116,0.0175,0.0258,0.0313,0.0318,0.0331,0.0304,0.0274,0.0171,0.0075,-0.0069,-0.0168,-0.0262,-0.0382,-0.0396,-0.0399,-0.0412,-0.0379,-0.0395,-0.039,-0.0447,-0.0448,-0.0448,-0.0448,0,0.001,0.0041,0.008,0.0156,0.0244,0.0325,0.0347,0.0389,0.0396,0.0352,0.035,0.0223,0.014,-0.0023,-0.0101,-0.0204,-0.0255,-0.0295,-0.0305,-0.0309,-0.0227,-0.0162,-0.0182,0,0,0,0,0,0.0025,0.0052,0.0132,0.0202,0.0295,0.034,0.0426,0.044,0.0432,0.0432,0.0381,0.0304,0.0127,0.0044,-0.0055,-0.0108,-0.0276,-0.0228,-0.0327,-0.0434,-0.0437,-0.036,0,0,0,0,0,0,0.0031,0.008,0.0122,0.0229,0.0284,0.0385,0.0436,0.0443,0.0435,0.0407,0.0319,0.0273,0.0106,0.0173,-0.0066,-0.0099,-0.0173,-0.0311,-0.0313,-0.0433,-0.0435,-0.0438,-0.0359,0,0,0,0,0]}]]